TimePDT,TemperatureF,Dew PointF,Humidity,Sea Level PressureIn,VisibilityMPH,Wind Direction,Wind SpeedMPH,Gust SpeedMPH,PrecipitationIn,Events,Conditions,WindDirDegrees,DateUTC
12:53 AM,53.1,50.0,89,29.95,10.0,Calm,Calm,-,N/A,,Clear,0,2013-08-14 07:53:00
1:53 AM,52.0,50.0,93,29.94,10.0,Calm,Calm,-,N/A,,Clear,0,2013-08-14 08:53:00
2:53 AM,53.1,50.0,89,29.94,10.0,Calm,Calm,-,N/A,,Clear,0,2013-08-14 09:53:00
3:53 AM,53.1,50.0,89,29.94,10.0,Calm,Calm,-,N/A,,Clear,0,2013-08-14 10:53:00
4:53 AM,54.0,51.1,90,29.94,10.0,Calm,Calm,-,N/A,,Clear,0,2013-08-14 11:53:00
5:53 AM,55.0,52.0,89,29.93,10.0,Calm,Calm,-,N/A,,Clear,0,2013-08-14 12:53:00
6:53 AM,57.0,54.0,89,29.93,10.0,Calm,Calm,-,N/A,,Clear,0,2013-08-14 13:53:00
7:53 AM,57.0,53.1,87,29.94,10.0,Calm,Calm,-,N/A,,Clear,0,2013-08-14 14:53:00
8:53 AM,59.0,53.1,81,29.94,10.0,Calm,Calm,-,N/A,,Clear,0,2013-08-14 15:53:00
9:53 AM,61.0,53.1,75,29.93,10.0,NE,3.5,-,N/A,,Clear,50,2013-08-14 16:53:00
10:53 AM,64.0,52.0,65,29.93,10.0,North,4.6,-,N/A,,Scattered Clouds,360,2013-08-14 17:53:00
11:53 AM,64.9,52.0,63,29.92,10.0,NNE,3.5,-,N/A,,Clear,20,2013-08-14 18:53:00
12:53 PM,64.9,52.0,63,29.94,10.0,Calm,Calm,-,N/A,,Clear,0,2013-08-14 19:53:00
1:53 PM,66.0,52.0,60,29.93,10.0,NNW,4.6,-,N/A,,Partly Cloudy,340,2013-08-14 20:53:00
2:53 PM,68.0,54.0,61,29.93,10.0,Variable,5.8,-,N/A,,Partly Cloudy,0,2013-08-14 21:53:00
3:53 PM,66.9,54.0,63,29.94,10.0,Calm,Calm,-,N/A,,Overcast,0,2013-08-14 22:53:00
4:53 PM,64.9,57.9,78,29.93,10.0,NW,4.6,-,0.02,Rain,Light Rain,310,2013-08-14 23:53:00
5:53 PM,62.1,59.0,90,29.93,10.0,ENE,3.5,-,0.00,Rain,Light Rain,70,2013-08-15 00:53:00
6:53 PM,61.0,57.9,90,29.94,10.0,Calm,Calm,-,0.03,,Scattered Clouds,0,2013-08-15 01:53:00
7:53 PM,62.1,59.0,90,29.92,10.0,SSE,3.5,-,N/A,,Mostly Cloudy,150,2013-08-15 02:53:00
8:53 PM,61.0,59.0,93,29.93,10.0,NE,3.5,-,N/A,,Overcast,40,2013-08-15 03:53:00
9:53 PM,59.0,57.0,93,29.94,5.0,Calm,Calm,-,N/A,,Clear,0,2013-08-15 04:53:00
10:53 PM,57.0,55.9,96,29.94,4.0,Calm,Calm,-,N/A,,Clear,0,2013-08-15 05:53:00
11:34 PM,57.0,55.9,96,29.94,4.0,WNW,3.5,-,N/A,,Partly Cloudy,290,2013-08-15 06:34:00
11:53 PM,57.0,55.9,96,29.94,7.0,NNW,3.5,-,N/A,,Partly Cloudy,330,2013-08-15 06:53:00